Retour au catalogue

STARLINK-36377

ActifCommunicationsSSO
NORAD 67812·PAYLOAD·🇺🇸 United States

Lancé Feb 15, 2026 depuis Vandenberg Space Force Base

Loading…

Prochains Passages (prochaines 24 heures)

TLE

FraisSource: CelesTrak SupGP

Époque: Sep 14, 2026, 22:41 UTC

1 67812C 26032R   26257.94562500  .00078135  00000+0  24260-2 0  2576
2 67812  97.2855  84.4809 0001602  93.0056  45.5728 15.33392670    18

Suivez STARLINK-36377 en temps réel avec AllMySat

Download on the App Store